Regional Weather Roundup
Issued by NWS Kansas City/Pleasant Hill, MO

Home | Current Version | Previous Version | Graphics & Text | Print | Product List | Glossary Off
Versions: 1 2 3 4 5 6 7 8 9 10 11 12 13 14 15 16 17 18 19 20 21 22 23 24 25 26 27 28 29 30 31 32 33 34 35 36 37 38 39 40 41 42 43 44 45 46 47 48 49 50

000
ASUS43 KEAX 270304
RWREAX

WEATHER ROUNDUP FOR EASTERN KANSAS AND NORTHWEST MISSOURI
NATIONAL WEATHER SERVICE KANSAS CITY/PLEASANT HILL MO
1000 PM CDT THU MAR 26 2015

KSZ040-057-103>105-MOZ028-029-037-043-270400-
...KANSAS CITY METROPOLITAN AREA...

CITY           SKY/WX    TMP DP  RH WIND       PRES   REMARKS
K.C. INTL      CLOUDY    43  31  62 N13       30.11R
K.C. DOWNTOWN  CLOUDY    48  28  46 N8        30.10S
LEES SUMMIT    CLOUDY    46  27  47 N8        30.09F
OLATHE - IXD   CLOUDY    43  31  62 NE7       30.09F
OLATHE - OJC   CLOUDY    47  28  47 N8        30.08F
LAWRENCE       CLOUDY    45  30  55 N12       30.10R

$$

MOZ001>008-011>017-020>025-030>033-038>040-044>046-053-054-270400-
...NORTHERN AND CENTRAL MISSOURI...

CITY           SKY/WX    TMP DP  RH WIND       PRES   REMARKS
ST. JOSEPH     CLOUDY    39  34  82 N15       30.16R WCI  31
MOSBY          CLOUDY    45  28  53 N12       30.10S
WHITEMAN AFB   NOT AVBL
CLINTON        CLOUDY    45  34  65 N6        30.10R
SEDALIA        CLOUDY    45  32  60 N5        30.10R
WARSAW         NOT AVBL
MARSHALL       CLOUDY    46  32  57 CALM      30.11R
CHILLICOTHE      N/A     43  31  62 N6        30.14R
MOBERLY        CLOUDY    45  28  53 N6        30.10R
KIRKSVILLE     CLOUDY    41  27  57 N13       30.11R WCI  34

$$

MOZ041-047>049-056>058-063>065-088>090-097-270400-
...EASTERN AND SOUTHERN MISSOURI...

CITY           SKY/WX    TMP DP  RH WIND       PRES   REMARKS
ST. LOUIS INTL PTCLDY    43  27  53 CALM      30.07F
SPIRIT OF STL  CLEAR     38  30  73 CALM      30.07S
COLUMBIA       CLOUDY    43  28  55 W5        30.08R
JEFFERSON CITY MOCLDY    42  31  64 NW3       30.09R
HANNIBAL       CLOUDY    43  25  49 N6        30.09R
ROLLA          CLEAR     37  28  70 MISG      30.06S
LEBANON        PTCLDY    39  30  70 CALM      30.08S
OSAGE BEACH    MOCLDY    39  28  65 N3        30.09R
SPRINGFIELD    PTCLDY    36  29  75 SE6       30.05F WCI  31
BRANSON        CLEAR     41  28  60 CALM      30.09F
NEVADA         CLOUDY    43  32  65 CALM      30.08R
JOPLIN         MOCLDY    43  31  62 SW6       30.08S
WEST PLAINS    CLEAR     40  26  57 MISG      30.07S

$$

IAZ060-094-KSZ022-034>040-054-083-096-NEZ052-066-093-270400-
...KANSAS...SOUTHEAST NEBRASKA AND IOWA...

CITY           SKY/WX    TMP DP  RH WIND       PRES   REMARKS
TOPEKA         CLOUDY    45  33  63 N17       30.13R
MANHATTAN      CLOUDY    42  36  79 NE18      30.11R WCI  34
EMPORIA        CLOUDY    46  38  73 NE13      30.08R
CHANUTE        CLOUDY    48  31  51 SE6       30.04F
WICHITA        MOCLDY    48  31  51 SW5       30.03R
OMAHA          CLOUDY    34  32  92 N7        30.19R WCI  28
LINCOLN        CLOUDY    34  33  96 N9        30.21R WCI  27
FALLS CITY     LGT RAIN  36  33  89 NE9       30.16R WCI  29
LAMONI         MIX PCPN  36  33  89 N12       30.14R WCI  28
DES MOINES     CLOUDY    37  23  56 N13G22    30.17R WCI  29

$$




USA.gov is the U.S. government's official web portal to all federal, state and local government web resources and services.